Вернуться в каталог

CZ-6A DEB

АктивенSSO
NORAD 54563·DEBRIS·🇨🇳 China

Запущен Nov 11, 2022 с Taiyuan Satellite Launch Center

Loading…

Ближайшие Пролёты (ближайшие 24 часа)

TLE

СвежийSource: Space-Track

Эпоха: Sep 14, 2026, 11:16 UTC

1 54563U 22151LP  26257.46949355  .00000653  00000-0  35726-3 0  9991
2 54563  98.8324 263.5720 0037065  65.1753 295.3268 14.15035376197762

Отслеживайте CZ-6A DEB в реальном времени с AllMySat

Download on the App Store